This is the latest recevied weather packets stored in our database for station/object SV9TNF-52. If no packets are shown the sender has not sent any weather packets the latest 10 day(s).
| Time | Temp. | Humidity | Pressure | Rain* | Wind** | Luminosity | Snow |
|---|---|---|---|---|---|---|---|
| 1788551243 | 24.44° C | 61% | 1021 hPa | 0 mm | 0.45 m/s, 163° | - | - |
| 1788550943 | 24.44° C | 61% | 1021 hPa | 0 mm | 1.79 m/s, 195° | - | - |
| 1788550643 | 24.44° C | 60% | 1021 hPa | 0 mm | 2.24 m/s, 197° | - | - |
| 1788550343 | 24.44° C | 59% | 1021 hPa | 0 mm | 0.89 m/s, 265° | - | - |
| 1788550042 | 24.44° C | 58% | 1021 hPa | 0 mm | 1.34 m/s, 159° | - | - |
| 1788549742 | 25° C | 57% | 1021 hPa | 0 mm | 4.02 m/s, 263° | - | - |
| 1788549442 | 26.67° C | 59% | 1021 hPa | 0 mm | 1.79 m/s, 279° | - | - |
| 1788549142 | 26.67° C | 59% | 1021 hPa | 0 mm | 5.81 m/s, 211° | - | - |
| 1788548842 | 26.67° C | 58% | 1021 hPa | 0 mm | 3.58 m/s, 67° | - | - |
| 1788548542 | 26.67° C | 57% | 1021 hPa | 0 mm | 7.15 m/s, 99° | - | - |
| 1788548242 | 26.67° C | 56% | 1021 hPa | 0 mm | 0 m/s | - | - |
| 1788547942 | 26.67° C | 55% | 1021 hPa | 0 mm | 1.34 m/s, 82° | - | - |
| 1788547642 | 26.67° C | 57% | 1021 hPa | 0 mm | 3.58 m/s, 70° | - | - |
| 1788547189 | 26.67° C | 55% | 1021 hPa | 0 mm | 3.58 m/s, 83° | - | - |
| 1788546890 | 26.67° C | 55% | 1021 hPa | 0 mm | 1.79 m/s, 81° | - | - |
| 1788546590 | 26.11° C | 55% | 1021 hPa | 0 mm | 1.79 m/s, 135° | - | - |
| 1788546289 | 26.11° C | 54% | 1020.7 hPa | 0 mm | 3.13 m/s, 118° | - | - |
| 1788545989 | 26.67° C | 55% | 1020.7 hPa | 0 mm | 1.79 m/s, 90° | - | - |
| 1788545689 | 26.67° C | 55% | 1020.7 hPa | 0 mm | 1.34 m/s, 79° | - | - |
| 1788545389 | 27.22° C | 54% | 1020.7 hPa | 0 mm | 2.24 m/s, 90° | - | - |
| 1788545089 | 27.22° C | 55% | 1020.7 hPa | 0 mm | 2.24 m/s, 80° | - | - |
| 1788544789 | 26.67° C | 56% | 1020.3 hPa | 0 mm | 1.34 m/s, 171° | - | - |
| 1788544489 | 27.22° C | 55% | 1020.3 hPa | 0 mm | 6.26 m/s, 95° | - | - |
| 1788544189 | 27.22° C | 55% | 1020.3 hPa | 0 mm | 5.81 m/s, 97° | - | - |
| 1788543889 | 27.22° C | 54% | 1020.3 hPa | 0 mm | 2.24 m/s, 225° | - | - |
* Rain latest hour (hover to see other rain measurements)
** Current wind speed in m/s (hover to see current wind gust speed)